Location: Équennes
(49.7375°N, 1.9622°E)
Time: 00:22:09
(UTC+00:00)

Cosmos 2278 - Visible Passes

Search period start: 20 July 2024 00:00
Search period end: 30 July 2024 00:00
Orbit: 838 x 852 km, 71.1° (Epoch: 19 July)

Date Brightness Start Highest point End Pass type
(mag) Time Alt. Az. Time Alt. Az. Time Alt. Az.
22 Jul 4.8 03:17:10 10° S 03:22:31 43° ESE 03:27:54 10° NE visible
23 Jul 4.8 03:03:14 10° S 03:08:33 42° ESE 03:13:54 10° NE visible
24 Jul 4.8 02:49:17 10° S 02:54:35 41° ESE 02:59:54 10° NE visible
25 Jul 4.8 02:35:21 10° S 02:40:36 40° ESE 02:45:53 10° NE visible
26 Jul 4.8 02:21:34 11° S 02:26:38 38° ESE 02:31:52 10° NE visible
27 Jul 4.8 02:08:10 13° S 02:12:39 37° ESE 02:17:52 10° NE visible
28 Jul 4.8 01:54:44 16° SSE 01:58:41 36° ESE 02:03:51 10° NE visible
28 Jul 4.3 03:37:14 10° SW 03:42:43 46° NW 03:48:12 10° NNE visible
29 Jul 4.8 01:41:16 19° SSE 01:44:42 35° ESE 01:49:50 10° NE visible
29 Jul 4.3 03:23:12 10° SW 03:28:42 47° NW 03:34:13 10° NNE visible
